Flag for Czech Republic Weather past 2 weeks in Brno, Czech Republic

Now
32 °F

Overcast.


Feels Like: 32 °F
Forecast: 26 / 34 °F
Wind: 2 mph from Southwest

Location: Brno / Turany

Current Time: Jan 28, 2015 at 8:03:33 AM

Latest Report: Jan 28, 2015 at 7:00 AM


Visibility: 22 mi

Pressure: 30.07 "Hg

Humidity: 87%

Dew point: 29 °F

Location of BrnoLocation

Historic Weather in Brno — Graph

°F

Brno temperature yesterday

Maximum temperature yesterday: 38 °F (at 4:00 PM)
Minimum temperature yesterday: 24 °F (at 2:00 AM)
Average temperature yesterday: 31 °F

Past Weeks' High & Low Weather Summary

 TemperatureHumidityPressure
High46 °F (Jan 13, 2:00 PM)95% (Jan 19, 11:00 PM)30.33 "Hg (Jan 19, 11:00 PM)
Low24 °F (Jan 27, 2:00 AM)50% (Jan 13, 12:00 PM)29.77 "Hg (Jan 17, 4:00 AM)
Average36 °F82%30.04 "Hg
* Reported Jan 13 6:00 AM — Jan 28 6:00 AM, Brno, Weather by CustomWeather, © 2014

Note: Actual official high and low records may vary slightly from our data, if they occured in-between our weather recording intervals... More about our weather records

Advertising

Brno weather history for previous 24 hours

 ConditionsComfort  
Time TempWeatherWind HumidityBarometerVisibility
6:00 AM
Jan 28
32 °FOvercast.2 mph86%30.07 "Hg22 mi
5:00 AM31 °FPassing clouds.1 mph87%30.07 "Hg25 mi
4:00 AM33 °FOvercast.2 mph85%30.07 "Hg25 mi
3:00 AM32 °FOvercast.3 mph88%30.07 "Hg25 mi
2:00 AM30 °FFog.2 mph92%30.09 "Hg25 mi
1:00 AM32 °FOvercast.No wind91%30.09 "Hg19 mi
12:00 AM32 °FLight snow. Overcast.1 mph90%30.09 "Hg16 mi
11:00 PM
Jan 27
33 °FOvercast.1 mph83%30.08 "Hg25 mi
10:00 PM33 °FOvercast.1 mph83%30.07 "Hg25 mi
9:00 PM33 °FOvercast.5 mph85%30.06 "Hg25 mi
8:00 PM34 °FLight snow. Overcast.2 mph84%30.06 "Hg19 mi
7:00 PM35 °FPassing clouds.3 mph81%30.05 "Hg25 mi
6:00 PM36 °FOvercast.3 mph80%30.03 "Hg25 mi
5:00 PM36 °FOvercast.6 mph79%30.01 "Hg25 mi
4:00 PM38 °FOvercast.6 mph73%29.98 "Hg25 mi
3:00 PM35 °FLow clouds.1 mph87%29.98 "Hg19 mi
2:00 PM35 °FLow clouds.1 mph88%29.97 "Hg12 mi
1:00 PM34 °FLight snow. Low clouds.1 mph91%29.98 "Hg2 mi
12:00 PM33 °FLight snow. Low clouds.2 mph91%29.98 "Hg2 mi
11:00 AM32 °FLight snow. Low clouds.3 mph92%29.99 "Hg2 mi
10:00 AM31 °FLight snow. Low clouds.1 mph91%29.98 "Hg2 mi
9:00 AM29 °FSnow. Low clouds.1 mph95%29.99 "Hg1 mi
8:00 AM28 °FSnow. Low clouds.1 mph94%29.98 "Hg1 mi
Weather by CustomWeather, © 2014

See weather overviewHow to use our weather pages